Home   Weather   Arica   Past weeks
Flag for Chile

Past Weather in Arica, Chile — Yesterday and Last 2 Weeks

Now
64 °F

Overcast.


Feels Like: 64 °F
Forecast: 70 / 60 °F
Wind: 3 mph from South

Location: Arica Airport

Current Time: May 22, 2019 at 11:06:30 am

Latest Report: May 22, 2019 at 10:00 am


Visibility: N/A

Pressure: 30.01 "Hg

Humidity: 68%

Dew Point: 54 °F

Location of AricaLocation

Past Weather in Arica — Graph

°F

Arica Temperature Yesterday

Maximum temperature yesterday: 66 °F (at 11:00 am)
Minimum temperature yesterday: 64 °F (at 12:00 am)
Average temperature yesterday: 65 °F

High & Low Weather Summary for the Past Weeks

 TemperatureHumidityPressure
High72 °F (May 7, 11:00 am)83% (May 14, 8:00 pm)30.09 "Hg (May 14, 8:00 pm)
Low55 °F (May 13, 7:00 am)53% (May 11, 11:00 am)29.89 "Hg (May 7, 12:00 pm)
Average65 °F69%29.98 "Hg
* Reported May 7 10:00 am — May 22 10:00 am, Arica. Weather by CustomWeather, © 2019

Note: Actual official high and low records may vary slightly from our data, if they occured in-between our weather recording intervals... More about our weather records

Advertising

Arica Weather History for the Previous 24 Hours

Scroll right to see more
 ConditionsComfort  
Time TempWeatherWind HumidityBarometerVisibility
10:00 am
Wed, May 22
64 °FOvercast.3 mph68%30.01 "HgN/A
9:00 am64 °FOvercast.No wind68%30.01 "HgN/A
8:00 am63 °FOvercast.No wind73%29.98 "Hg4 mi
7:00 am64 °FOvercast.2 mph73%29.98 "Hg4 mi
6:00 am63 °FOvercast.No wind73%29.98 "HgN/A
5:00 am63 °FOvercast.No wind77%29.95 "Hg4 mi
4:00 am63 °FOvercast.1 mph77%29.95 "Hg3 mi
3:00 am63 °FOvercast.1 mph77%29.98 "Hg5 mi
2:00 am63 °FOvercast.5 mph73%29.98 "HgN/A
1:00 am63 °FOvercast.3 mph77%30.01 "HgN/A
12:00 am63 °FOvercast.2 mph73%30.01 "HgN/A
11:00 pm
Tue, May 21
64 °FOvercast.5 mph73%30.04 "HgN/A
10:00 pm64 °FOvercast.5 mph68%30.04 "HgN/A
9:00 pm64 °FOvercast.7 mph68%30.01 "HgN/A
8:00 pm64 °FOvercast.9 mph68%30.01 "HgN/A
7:00 pm64 °FPassing clouds.8 mph68%29.98 "HgN/A
6:00 pm64 °FPartly sunny.8 mph68%29.95 "HgN/A
5:00 pm64 °FPartly sunny.12 mph68%29.95 "HgN/A
4:00 pm66 °FPartly sunny.13 mph64%29.95 "HgN/A
3:00 pm66 °FPartly sunny.13 mph64%29.95 "HgN/A
2:00 pm66 °FOvercast.9 mph64%29.98 "HgN/A
1:00 pm66 °FOvercast.8 mph64%30.01 "HgN/A
12:00 pm66 °FOvercast.6 mph64%30.04 "HgN/A
11:00 am66 °FOvercast.1 mph64%30.04 "HgN/A
Weather by CustomWeather, © 2019

See weather overview